Location: Beutels
(47.8767°N, 9.8584°E)
Time: 19:52:42
(UTC+00:00)

ISS - Pass Details

Date: 23 January 2026
Orbit: 413 x 429 km, 51.6° (Epoch: 11 February)

Event Time Altitude Azimuth Distance (km) Brightness Sun altitude
Rises 17:39:49 0° 289° (WNW) 2,365 1.1 -15.4°
Reaches altitude 10° 17:41:57 10° 295° (WNW) 1,503 -0.1 -15.8°
Maximum altitude 17:45:15 50° 12° (NNE) 543 -3.4 -16.3°
Enters shadow 17:46:00 40° 56° (NE) 632 -3.3 -16.4°
